Change the Weather History Date:

Monday, December 9, 2013

  Actual Average (KFWA) Record (KFWA)
Temperature  
Mean Temperature 24 °F 31 °F  
Max Temperature 30 °F 38 °F 64 °F (1952)
Min Temperature 19 °F 24 °F -9 °F (1958)
Degree Days  
Heating Degree Days 40 34  
Month to date heating degree days 292  
Since 1 July heating degree days 1509  
Cooling Degree Days 0 0  
Month to date cooling degree days 0  
Year to date cooling degree days 809  
Moisture  
Dew Point 18 °F    
Average Humidity 75    
Maximum Humidity 93    
Minimum Humidity 58    
Precipitation  
Precipitation 0.00 in 0.09 in 0.82 in (2008)
Month to date precipitation 0.84  
Year to date precipitation 36.41  
Snow  
Snow 0.00 in 0.20 in 3.70 in (1914)
Month to date snowfall 1.8  
Since 1 July snowfall 3.9  
Snow Depth -    
Sea Level Pressure  
Sea Level Pressure 30.05 in    
Wind  
Wind Speed 9 mph (WSW)    
Max Wind Speed 18 mph    
Max Gust Speed 25 mph    
Visibility 8 miles    
Events Snow    
T = Trace of Precipitation, MM = Missing Value Source: NWS Daily Summary

Daily Weather History Graph

Daily Weather History Graph

Search for Another Location

Airport or City:

Trip Planner

Search our weather history database for the weather conditions in past years. The results will help you decide how hot, cold, wet, or windy it might be!

Date:

Astronomy

Dec. 09, 2013 Rise Set
Actual Time 7:54 AM EST 5:10 PM EST
Civil Twilight 7:23 AM EST 5:42 PM EST
Nautical Twilight 6:48 AM EST 6:16 PM EST
Astronomical Twilight 6:15 AM EST 6:50 PM EST
Moon 12:43 PM EST (12/9) 12:02 AM EST (12/9)
Length of Visible Light 10h 18m
Length of Day
9h 16m
Waxing Crescent, 51% of the Moon is Illuminated
Dec 9
Waxing Crescent
Dec 17
Full
Dec 25
Last Quarter
Jan 1
New
Jan 7
First Quarter

Hourly Weather History & Observations

Time (EST) Temp. Windchill Dew Point Humidity Pressure Visibility Wind Dir Wind Speed Gust Speed Precip Events Conditions
12:15 AM 28.4 °F - 26.6 °F 93% 29.96 in 2.0 mi Calm Calm - N/A   Overcast
12:35 AM 28.4 °F 24.6 °F 26.6 °F 93% 29.95 in 2.5 mi South 3.5 mph - N/A Snow Light Snow
12:55 AM 28.4 °F 22.2 °F 26.6 °F 93% 29.93 in 1.5 mi South 5.8 mph - N/A Snow Light Snow
1:15 AM 28.4 °F 22.2 °F 26.6 °F 93% 29.92 in 2.0 mi SSW 5.8 mph - N/A Snow Light Snow
1:35 AM 28.4 °F 22.2 °F 26.6 °F 93% 29.92 in 3.0 mi SSW 5.8 mph - N/A Snow Light Snow
1:55 AM 28.4 °F 23.3 °F 26.6 °F 93% 29.91 in 2.5 mi SSW 4.6 mph - N/A Snow Light Snow
2:15 AM 30.2 °F 24.3 °F 26.6 °F 86% 29.91 in 3.0 mi SSW 5.8 mph - N/A Snow Light Snow
2:35 AM 30.2 °F 23.4 °F 26.6 °F 86% 29.91 in 5.0 mi SW 6.9 mph - N/A Snow Light Snow
2:55 AM 30.2 °F 21.9 °F 26.6 °F 86% 29.91 in 7.0 mi WSW 9.2 mph - N/A   Overcast
3:15 AM 30.2 °F 21.9 °F 26.6 °F 86% 29.92 in 7.0 mi WSW 9.2 mph 19.6 mph N/A   Overcast
3:35 AM 30.2 °F 22.6 °F 26.6 °F 86% 29.92 in 5.0 mi WSW 8.1 mph - N/A   Overcast
3:55 AM 30.2 °F 21.9 °F 26.6 °F 86% 29.92 in 10.0 mi WSW 9.2 mph 17.3 mph N/A Snow Light Snow
4:15 AM 30.2 °F 20.2 °F 26.6 °F 86% 29.92 in 10.0 mi West 12.7 mph 18.4 mph N/A   Overcast
4:35 AM 30.2 °F 20.2 °F 26.6 °F 86% 29.92 in 10.0 mi WSW 12.7 mph 18.4 mph N/A   Overcast
4:55 AM 30.2 °F 19.8 °F 24.8 °F 80% 29.93 in 10.0 mi WSW 13.8 mph 20.7 mph N/A   Overcast
5:35 AM 28.4 °F 18.0 °F 23.0 °F 80% 29.94 in 7.0 mi WSW 12.7 mph 25.3 mph N/A   Overcast
5:55 AM 28.4 °F 17.0 °F 24.8 °F 86% 29.95 in 5.0 mi WSW 15.0 mph 20.7 mph N/A   Overcast
6:15 AM 28.4 °F 19.7 °F 24.8 °F 86% 29.95 in 7.0 mi WSW 9.2 mph 17.3 mph N/A   Overcast
6:35 AM 28.4 °F 17.5 °F 24.8 °F 86% 29.96 in 7.0 mi WSW 13.8 mph - N/A   Overcast
6:55 AM 28.4 °F 18.0 °F 23.0 °F 80% 29.97 in 7.0 mi WSW 12.7 mph 20.7 mph N/A   Overcast
7:15 AM 28.4 °F 18.5 °F 23.0 °F 80% 29.97 in 7.0 mi WSW 11.5 mph 19.6 mph N/A   Overcast
7:35 AM 26.6 °F 16.8 °F 23.0 °F 86% 29.97 in 10.0 mi WSW 10.4 mph 18.4 mph N/A   Overcast
7:55 AM 26.6 °F 16.2 °F 23.0 °F 86% 29.99 in 10.0 mi WSW 11.5 mph 20.7 mph N/A   Overcast
8:15 AM 26.6 °F 14.7 °F 21.2 °F 80% 29.99 in 10.0 mi WSW 15.0 mph 21.9 mph N/A   Overcast
8:35 AM 26.6 °F 15.7 °F 21.2 °F 80% 30.00 in 7.0 mi WSW 12.7 mph 20.7 mph N/A   Overcast
8:55 AM 26.6 °F 16.2 °F 21.2 °F 80% 30.01 in 7.0 mi WSW 11.5 mph 20.7 mph N/A   Overcast
9:15 AM 26.6 °F 14.7 °F 21.2 °F 80% 30.02 in 7.0 mi WSW 15.0 mph 24.2 mph N/A   Overcast
9:35 AM 26.6 °F 16.2 °F 21.2 °F 80% 30.04 in 7.0 mi WSW 11.5 mph 23.0 mph N/A   Overcast
9:55 AM 26.6 °F 15.2 °F 21.2 °F 80% 30.05 in 10.0 mi WSW 13.8 mph 19.6 mph N/A   Overcast
10:15 AM 26.6 °F 15.2 °F 21.2 °F 80% 30.06 in 7.0 mi West 13.8 mph 19.6 mph N/A   Overcast
10:35 AM 26.6 °F 16.2 °F 19.4 °F 74% 30.06 in 7.0 mi WSW 11.5 mph 20.7 mph N/A   Overcast
10:55 AM 26.6 °F 15.2 °F 19.4 °F 74% 30.07 in 10.0 mi WSW 13.8 mph 21.9 mph N/A   Overcast
11:15 AM 28.4 °F 18.0 °F 19.4 °F 69% 30.07 in 10.0 mi WSW 12.7 mph 24.2 mph N/A   Overcast
11:35 AM 28.4 °F 17.5 °F 19.4 °F 69% 30.06 in 10.0 mi WSW 13.8 mph 18.4 mph N/A   Overcast
11:55 AM 26.6 °F 16.2 °F 19.4 °F 74% 30.05 in 10.0 mi WSW 11.5 mph 16.1 mph N/A   Overcast
12:15 PM 28.4 °F 18.0 °F 17.6 °F 64% 30.05 in 10.0 mi WSW 12.7 mph - N/A   Overcast
12:35 PM 26.6 °F 17.5 °F 17.6 °F 69% 30.05 in 10.0 mi WSW 9.2 mph 19.6 mph N/A   Overcast
12:55 PM 26.6 °F 15.2 °F 17.6 °F 69% 30.06 in 10.0 mi WSW 13.8 mph 19.6 mph N/A   Mostly Cloudy
1:15 PM 28.4 °F 18.0 °F 17.6 °F 64% 30.08 in 10.0 mi WSW 12.7 mph 23.0 mph N/A   Mostly Cloudy
1:35 PM 26.6 °F 15.2 °F 17.6 °F 69% 30.08 in 10.0 mi WSW 13.8 mph 21.9 mph N/A   Overcast
1:55 PM 30.2 °F 18.1 °F 17.6 °F 60% 30.08 in 10.0 mi WSW 18.4 mph 23.0 mph N/A   Overcast
2:15 PM 28.4 °F 17.5 °F 17.6 °F 64% 30.09 in 10.0 mi WSW 13.8 mph 24.2 mph N/A   Overcast
2:35 PM 26.6 °F 15.7 °F 15.8 °F 64% 30.09 in 10.0 mi WSW 12.7 mph 25.3 mph N/A   Overcast
2:55 PM 24.8 °F 12.4 °F 15.8 °F 69% 30.09 in 10.0 mi West 15.0 mph 24.2 mph N/A   Mostly Cloudy
3:15 PM 24.8 °F 12.9 °F 15.8 °F 69% 30.10 in 10.0 mi WSW 13.8 mph 24.2 mph N/A   Scattered Clouds
3:35 PM 26.6 °F 14.3 °F 15.8 °F 64% 30.11 in 10.0 mi West 16.1 mph 21.9 mph N/A   Scattered Clouds
3:55 PM 24.8 °F 13.4 °F 15.8 °F 69% 30.12 in 10.0 mi West 12.7 mph 20.7 mph N/A   Scattered Clouds
4:15 PM 23.0 °F 10.1 °F 15.8 °F 74% 30.12 in 10.0 mi West 15.0 mph 20.7 mph N/A   Scattered Clouds
4:35 PM 23.0 °F 10.6 °F 14.0 °F 68% 30.13 in 10.0 mi WSW 13.8 mph 24.2 mph N/A   Scattered Clouds
4:55 PM 23.0 °F 10.6 °F 14.0 °F 68% 30.14 in 10.0 mi West 13.8 mph 19.6 mph N/A   Scattered Clouds
5:15 PM 23.0 °F 12.4 °F 14.0 °F 68% 30.14 in 10.0 mi West 10.4 mph 16.1 mph N/A   Clear
5:35 PM 21.2 °F 10.9 °F 14.0 °F 74% 30.14 in 10.0 mi WSW 9.2 mph 19.6 mph N/A   Clear
5:55 PM 21.2 °F 10.1 °F 12.2 °F 68% 30.13 in 10.0 mi WSW 10.4 mph 16.1 mph N/A   Clear
6:15 PM 21.2 °F 10.1 °F 12.2 °F 68% 30.14 in 10.0 mi WSW 10.4 mph - N/A   Clear
6:35 PM 21.2 °F 10.1 °F 12.2 °F 68% 30.15 in 10.0 mi WSW 10.4 mph 16.1 mph N/A   Clear
6:55 PM 21.2 °F 10.1 °F 12.2 °F 68% 30.16 in 10.0 mi SW 10.4 mph 17.3 mph N/A   Clear
7:15 PM 21.2 °F 11.7 °F 12.2 °F 68% 30.16 in 10.0 mi WSW 8.1 mph - N/A   Clear
7:35 PM 21.2 °F 10.9 °F 12.2 °F 68% 30.16 in 10.0 mi WSW 9.2 mph - N/A   Clear
7:55 PM 21.2 °F 9.5 °F 10.4 °F 63% 30.17 in 10.0 mi WSW 11.5 mph 17.3 mph N/A   Scattered Clouds
8:15 PM 21.2 °F 10.1 °F 10.4 °F 63% 30.16 in 10.0 mi WSW 10.4 mph 20.7 mph N/A   Scattered Clouds
8:35 PM 21.2 °F 9.5 °F 10.4 °F 63% 30.16 in 10.0 mi WSW 11.5 mph 16.1 mph N/A   Scattered Clouds
8:55 PM 21.2 °F 10.1 °F 10.4 °F 63% 30.16 in 10.0 mi WSW 10.4 mph 17.3 mph N/A   Mostly Cloudy
9:15 PM 21.2 °F 10.1 °F 10.4 °F 63% 30.17 in 10.0 mi WSW 10.4 mph - N/A   Overcast
9:35 PM 19.4 °F 7.9 °F 10.4 °F 68% 30.16 in 10.0 mi West 10.4 mph 16.1 mph N/A   Overcast
9:55 PM 19.4 °F 7.9 °F 10.4 °F 68% 30.15 in 10.0 mi West 10.4 mph - N/A   Overcast
10:15 PM 19.4 °F 6.6 °F 8.6 °F 63% 30.15 in 10.0 mi West 12.7 mph 18.4 mph N/A   Overcast
10:35 PM 19.4 °F 7.2 °F 10.4 °F 68% 30.15 in 10.0 mi West 11.5 mph - N/A   Overcast
10:55 PM 19.4 °F 8.6 °F 8.6 °F 63% 30.15 in 10.0 mi West 9.2 mph - N/A   Overcast
11:15 PM 19.4 °F 8.6 °F 8.6 °F 63% 30.15 in 10.0 mi West 9.2 mph - N/A   Overcast
11:35 PM 19.4 °F 10.4 °F 8.6 °F 63% 30.14 in 10.0 mi West 6.9 mph 16.1 mph N/A   Overcast
11:55 PM 19.4 °F 7.2 °F 6.8 °F 58% 30.15 in 10.0 mi WSW 11.5 mph 17.3 mph N/A   Overcast